Tracking 18840 objects as of 18-November-2017
HD Live streaming from Space Station
objects crossing your sky now

FENGYUN 1C DEB

Track FENGYUN 1C DEB now!
10-day predictions


NORAD ID: 30981
Int'l Code: 1999-025BBX
Perigee: 782.9 km
Apogee: 984.7 km
Inclination: 98.5 °
Period: 102.5 minutes
Semi major axis: 7254 km
RCS: 0.0194 m2 (small)
Launch date: May 10, 1999
Source: People's Republic of China (PRC)
Launch site: Taiyaun Space Center, China (TSC)

Note: This is SATELLITE DEBRIS
aabbcc
Your satellite tracking list
Your tracking list is empty




NASA's NSSDC Master Catalog

Two Line Element Set (TLE):
1 30981U 99025BBX 17321.03154031  .00001282  00000-0  75394-3 0  9991
2 30981  98.4622  37.9746 0139102 212.3683 146.8896 14.04953529545920
Source of the keplerian elements: AFSPC